Location: Saint John
(45.2733°N, 66.0633°W)
Time: 19:40:59
(UTC-04:00)

BlueWalker 3 - Pass Details

Date: 07 December 2022
Orbit: 499 x 517 km, 53.2° (Epoch: 05 February)

Event Time Altitude Azimuth Distance (km) Brightness Sun altitude
Rises 18:31:55 0° 303° (WNW) 2,628 6.2 -18.6°
Reaches altitude 10° 18:34:09 10° 307° (NW) 1,735 5.2 -19.0°
Maximum altitude 18:38:01 57° 27° (NNE) 604 2.0 -19.7°
Enters shadow 18:38:14 56° 43° (NE) 611 2.0 -19.7°
